Terminal Aerodrome Forecast
Issued by NWS

Home | Current Version | Previous Version | Text Only | Print | Product List | Glossary On
Versions: 1 2 3 4 5 6 7 8 9 10 11 12 13 14 15
000
FTUS44 KLZK 261134
TAFLLQ
TAF
KLLQ 261134Z 2612/2712 14009KT P6SM SCT015 OVC040 WS020/20040KT
     FM261600 17010G18KT P6SM VCSH SCT025 OVC040
      TEMPO 2618/2622 5SM -TSRA BR OVC015CB
     FM262200 24012G22KT 5SM -RA VCTS SCT015CB OVC035
      TEMPO 2622/2702 VRB25G40KT 1SM TSRA OVC015CB
     FM270200 30012G20KT P6SM -SHRA OVC015=

USA.gov is the U.S. government's official web portal to all federal, state and local government web resources and services.